VARKAUS current weather conditions

sailwx.info

Wind from 230 at 4 knots

Air temperature -2.0° C
Visibility: greater than 5.4 NM
Dewpoint -3.0° C
Present weather: Light snow.

Last reported at 2015-Jan-27 19:20 UTC.
Time now 2015-Jan-27 21:04 UTC

Location: N 62°10' E 027°52'.
View on Google Maps.

See reports from other nearby stations

  
Tides and Currents Weather Stations Pressure Air Temp Water Temp Dewpoint Dewpoint Depression Visibility Wind Speed Wind Dir Waves Ship Positions
date/time (UTC)wind fromknots sea level pressurealtimeterstation pressurevisibilityair tempwater tempwave heightnotes
2015-Jan-27 19:20 230 4 5.4-2.0 Light snow.
2015-Jan-27 18:50 220 4 2.7-2.0 Light snow.
2015-Jan-27 18:20 220 5 2.7-2.0 Light snow.
2015-Jan-27 17:50 230 4 4.9-2.0 Light snow grains.
2015-Jan-27 17:20 210 5 5.4-2.0 Light snow.
2015-Jan-27 16:50 210 4 5.4-2.0 Light snow.
2015-Jan-27 16:20 210 5 2.4-2.0 Light snow.
2015-Jan-27 15:50 210 5 3.8-2.0 Light snow.
2015-Jan-27 15:20 210 4 2.6-2.0 Light snow.
2015-Jan-27 14:50 210 5 1.6-2.0 Light snow.
2015-Jan-27 14:20 220 7 1.4-1.0 Light snow.
2015-Jan-27 13:50 220 6 1.5-1.0 Light snow.
2015-Jan-27 13:20 210 6 1.3-1.0 Light snow.
2015-Jan-27 12:50 210 7 1.1-1.0 Light snow.
2015-Jan-27 12:20 210 5 1.1-1.0 Light snow.
2015-Jan-27 11:50 210 6 1.7-1.0 Light snow.
2015-Jan-27 11:20 210 6 1.6-1.0 Light snow.
2015-Jan-27 10:50 210 6 2.3-1.0 Light snow.
2015-Jan-27 10:20 210 7 1.5-1.0 Light snow.
2015-Jan-27 09:50 200 7 1.3-1.0 Light snow.
2015-Jan-27 09:20 200 7 4.9-1.0 Light snow grains.
2015-Jan-27 08:50 200 7 gusting 19 2.5-1.0 Light snow.
2015-Jan-27 08:20 200 7 5.4-1.0 Light snow showers.
2015-Jan-27 07:50 190 7 5.4-1.0
2015-Jan-27 07:20 190 6 5.4-1.0 Light snow.
2015-Jan-27 06:50 190 6 5.4-1.0
2015-Jan-27 06:20 190 5 5.4-2.0
2015-Jan-27 05:20 170 6 5.4-2.0
2015-Jan-27 04:50 180 6 5.4-1.0
2015-Jan-27 04:20 180 5 5.4-1.0
2015-Jan-27 03:50 180 5 5.4-2.0
2015-Jan-27 03:20 180 5 5.4-2.0
2015-Jan-27 02:50 170 7 5.4-1.0
2015-Jan-27 02:20 180 7 5.4-1.0
2015-Jan-27 01:50 180 7 5.4-1.0
2015-Jan-27 01:20 180 7 5.4-1.0
2015-Jan-27 00:50 180 6 5.4-1.0
2015-Jan-27 00:20 170 5 5.4-1.0
2015-Jan-26 23:50 170 5 5.4-1.0
2015-Jan-26 23:20 180 6 5.4-1.0
2015-Jan-26 22:50 180 7 5.4-1.0
2015-Jan-26 22:20 180 7 5.4-1.0
2015-Jan-26 21:50 180 5 5.4-1.0
2015-Jan-26 21:20 180 5 5.4-1.0
2015-Jan-26 20:50 180 5 5.4-1.0
2015-Jan-26 20:20 190 5 5.4-1.0
2015-Jan-26 19:50 190 6 5.4-1.0
2015-Jan-26 19:20 190 6 5.4-1.0
2015-Jan-26 18:50 190 6 5.4-1.0
2015-Jan-26 18:20 190 6 5.4-1.0
2015-Jan-26 17:50 180 6 5.4-1.0
2015-Jan-26 17:20 180 6 5.4-1.0
2015-Jan-26 16:50 180 6 5.4-1.0
2015-Jan-26 16:20 180 6 5.4-0.0
2015-Jan-26 15:50 170 5 5.4-1.0
2015-Jan-26 15:20 180 4 5.4-1.0
2015-Jan-26 14:50 180 4 5.4-1.0
2015-Jan-26 14:20 180 4 5.4-1.0
2015-Jan-26 13:50 170 5 5.4-1.0
2015-Jan-26 13:20 190 4 5.4-1.0
2015-Jan-26 12:50 190 5 5.4-1.0
2015-Jan-26 12:20 180 5 5.4-1.0
2015-Jan-26 11:50 200 5 5.4-1.0
2015-Jan-26 11:20 170 5 5.4-1.0
2015-Jan-26 10:50 170 5 5.4-1.0
2015-Jan-26 10:20 180 4 5.4-1.0
2015-Jan-26 09:50 180 4 5.4-2.0
2015-Jan-26 09:20 160 5 5.4-2.0
2015-Jan-26 08:50 160 4 5.4-2.0
2015-Jan-26 08:20 160 4 5.4-2.0
2015-Jan-26 07:50 150 4 5.4-2.0
2015-Jan-26 07:20 5.4-3.0
2015-Jan-26 06:50 5.4-2.0
2015-Jan-26 06:20 5.4-2.0
2015-Jan-26 05:50 5.4-2.0
2015-Jan-26 05:20 4.9-2.0
2015-Jan-26 04:50 210 1 4.9-2.0
2015-Jan-26 04:20 5.4-3.0
2015-Jan-26 03:50 5.4-3.0
2015-Jan-26 03:20 5.4-3.0
2015-Jan-26 02:50 5.4-3.0
2015-Jan-26 02:20 5.4-3.0
2015-Jan-26 01:50 5.4-3.0 Light snow grains.
2015-Jan-26 01:20 5.4-3.0
2015-Jan-26 00:50 5.4-3.0
2015-Jan-26 00:20 5.4-3.0
2015-Jan-25 23:50 5.4-3.0
2015-Jan-25 23:20 5.4-3.0
2015-Jan-25 22:50 5.4-3.0
2015-Jan-25 22:20 5.4-3.0
2015-Jan-25 21:50 5.4-3.0
2015-Jan-25 21:20 5.4-3.0